Weather in Karlskrona

Sweden     56°09′40″N   15°35′12″E
temp.,
°C
wind,
m/s
gust,
m/s
humid.,
%
clouds,
%
prec.,
mm/h
press.,
hPa
HPBL,
m
1 july, fri
fri123:00+16ese1292100 0.6 101592
02:00+16nne239572 1.1 101494
05:00+16ene129162 0.0 101346
08:00+20e11760 0.0 1013349
11:00+24s226116 0.0 1014760
14:00+24s335920 0.0 1013674
17:00+24sse236117 0.0 1012478
20:00+20sse1391100 0.7 1013186
2 july, sat
sat223:00+19nw1299100 6.9 1013154
02:00+17ssw229887 7.4 101458
05:00+15wnw61193100 0.1 1015619
08:00+14wnw61191100 0.4 1018676
11:00+20w58510 0.0 10191357
14:00+22sw68493 0.0 10201589
17:00+23sw57460 0.0 10201386
20:00+20sw59659 0.0 1021394
3 july, sun
sun323:00+16w37815 0.0 1022144
02:00+13w22875 0.0 102245
05:00+13w01835 0.0 102223
08:00+19ssw24617 0.0 1022354
11:00+21s46515 0.0 1021845
14:00+22s46500 0.0 1020965
17:00+21sse464925 0.0 1019732
20:00+19se37620 0.0 1018336
4 july, mon
mon423:00+16se398287 0.0 1016203
02:00+15n2396100 1.1 101688
05:00+16sse2596100 1.3 1015158
08:00+17w358917 2.4 1015399
11:00+21sw46545 0.3 10151499
14:00+22sw68455 0.3 10151690
17:00+21sw895441 0.0 10151572
20:00+18wsw59645 0.0 10161002
5 july, tue
tue523:00+15w410830 0.0 1016602
02:00+13wsw411840 0.0 1017534
05:00+12wsw4108518 0.0 1017536
08:00+15wsw696932 0.0 10171052
11:00+18wsw695683 0.1 10171749
14:00+20wsw6105078 0.9 10161986
17:00+18w5105981 0.4 10161406
20:00+17w611629 0.4 10161495